Simultaneous Nadir Overpasses (SNOs) Predictions

Prediction of SNOs between NOAA-19 and NPP Satellite Orbit:

Table of predicted SNOs for the next 14.0 days since TLE Epoch: 11/22/2014
Index Date (NOAA-19) Time (NOAA-19) Lat,Lon (NOAA-19) SZA (NOAA-19 ) Date (NPP) Time (NPP) Lat,Lon (NPP) SZA (NPP ) Distance(km) Time Diff (sec)
1 11/30/2014 12:13:37 -80.89, 128.28 74.88 11/30/2014 12:14:50 -80.89, 128.33 74.92 0.88 73
2 11/30/2014 13:04:33 80.89, -64.36 105.12 11/30/2014 13:05:35 80.89, -64.37 105.09 0.21 62
3 11/30/2014 13:55:39 -80.88, 103.21 74.93 11/30/2014 13:56:19 -80.87, 103.25 74.96 0.88 40
4 11/30/2014 14:46:35 80.88, -89.44 105.07 11/30/2014 14:47:04 80.88, -89.45 105.06 0.23 29
5 11/30/2014 15:37:42 -80.88, 77.77 74.93 11/30/2014 15:37:49 -80.88, 77.82 74.94 0.90 7
6 11/30/2014</
